Terminal Aerodrome Forecast
Issued by NWS La Crosse, WI

Home | Current Version | Previous Version | Text Only | Print | Product List | Glossary On
Versions: 1 2 3 4 5 6 7 8 9 10 11 12 13 14 15 16 17 18 19 20 21 22 23 24 25 26 27 28 29 30 31 32 33 34
000
FTUS43 KARX 100520
TAFRST
TAF
KRST 100520Z 1006/1106 27007KT P6SM OVC070
     FM101300 12003KT P6SM SCT070 OVC120
     FM102000 12007KT 2SM -SN OVC018
     FM110200 13011KT 3/4SM -SN OVC008=

USA.gov is the U.S. government's official web portal to all federal, state and local government web resources and services.